Regional Weather Roundup
Issued by NWS

Home | Current Version | Previous Version | Graphics & Text | Print | Product List | Glossary On
Versions: 1 2 3 4 5 6 7 8 9 10 11 12 13 14 15 16 17 18 19 20 21 22 23 24 25 26 27 28 29 30 31 32 33 34 35 36 37 38 39 40 41 42 43 44 45 46 47 48
000
ASUS45 KCYS 011510
RWRWY

WYOMING REGIONAL WEATHER ROUNDUP
NATIONAL WEATHER SERVICE CHEYENNE WY
900 AM MDT TUE SEP 01 2015

NOTE:  "FAIR" INDICATES FEW OR NO CLOUDS BELOW 12,000 FEET
WITH NO SIGNIFICANT WEATHER AND/OR OBSTRUCTIONS TO VISIBILITY.

WYZ001-011600-
YELLOWSTONE NATIONAL PARK

CITY           SKY/WX    TMP DP  RH WIND       PRES   REMARKS
LK YELLOWSTONE   N/A     52  39  61 CALM      30.22S
W YELLOWSTONE  NOT AVBL

$$
WYZ002>013-054>058-071-098>099-011600-
NORTHERN WYOMING

CITY           SKY/WX    TMP DP  RH WIND       PRES   REMARKS
JACKSON        FAIR      48  34  57 CALM      30.16S
CODY           FAIR      70  30  23 CALM      29.99S
GREYBULL       FAIR      59  36  42 CALM      29.95S
WORLAND        FAIR      63  39  41 CALM      29.96S
SHERIDAN       FAIR      69  44  40 NE3       29.92S
BUFFALO        FAIR      73  39  29 CALM      29.99R
GILLETTE       FAIR      74  44  34 SW15      29.94F
HULETT         FAIR      68  48  49 SW12G17   29.95S
NEWCASTLE      FAIR      70  41  35 SE7       29.98S

$$
WYZ014>020-022>026-101>103-011600-
CENTRAL WYOMING

CITY           SKY/WX    TMP DP  RH WIND       PRES   REMARKS
BIG PINEY      FAIR      51  28  41 CALM      30.21S
PINEDALE       PTSUNNY   52  32  46 CALM      30.22R
DUBOIS         FAIR      55  27  33 MISG      30.15S
LANDER         FAIR      64  34  32 NE3       30.06S
RIVERTON       FAIR      63  35  35 NW7       30.07R
CASPER         FAIR      70  42  36 SW24      30.05F
DOUGLAS        FAIR      70  41  34 NW7       30.04S

$$
WYZ021-027>030-104>119-011600-
SOUTHERN WYOMING

CITY           SKY/WX    TMP DP  RH WIND       PRES   REMARKS
EVANSTON       FAIR      64  41  42 S9        30.20S
KEMMERER       FAIR      59  34  38 N3        30.21S
FORT BRIDGER   MOSUNNY   66  41  39 NW5       30.22S
ROCK SPRINGS   FAIR      62  44  51 NE5       30.19S
DIXON          FAIR      58  47  64 SE3       30.24S
RAWLINS        FAIR      65  41  41 CALM      30.20S
SARATOGA       FAIR      61  45  55 SE10      30.23S
LARAMIE        FAIR      61  47  59 SW10      30.22S
CHEYENNE       FAIR      72  43  35 W18G24    30.14R
TORRINGTON     FAIR      65  48  54 W5        30.00S
PINE BLUFFS    FAIR      68  50  52 SW5       30.10S

$$



USA.gov is the U.S. government's official web portal to all federal, state and local government web resources and services.